TimeCST,TemperatureF,Dew PointF,Humidity,Sea Level PressureIn,VisibilityMPH,Wind Direction,Wind SpeedMPH,Gust SpeedMPH,PrecipitationIn,Events,Conditions,WindDirDegrees,DateUTC
12:54 AM,6.1,3.0,87,30.11,9.0,WSW,10.4,-,N/A,,Clear,250,2013-01-04 06:54:00
1:54 AM,7.0,3.9,87,30.08,7.0,WSW,11.5,-,N/A,,Scattered Clouds,250,2013-01-04 07:54:00
2:02 AM,6.8,3.2,85,29.99,6.0,WSW,11.5,-,N/A,,Mostly Cloudy,250,2013-01-04 08:02:00
2:40 AM,6.8,5.0,92,29.98,8.0,SW,9.2,-,N/A,,Scattered Clouds,230,2013-01-04 08:40:00
2:54 AM,7.0,3.9,87,30.07,10.0,WSW,9.2,-,N/A,,Clear,240,2013-01-04 08:54:00
3:54 AM,8.1,5.0,87,30.06,10.0,WSW,11.5,-,N/A,,Clear,250,2013-01-04 09:54:00
4:54 AM,9.0,6.1,88,30.05,10.0,West,9.2,-,N/A,,Clear,260,2013-01-04 10:54:00
5:54 AM,9.0,6.1,88,30.04,10.0,WSW,9.2,-,N/A,,Clear,250,2013-01-04 11:54:00
6:54 AM,10.0,7.0,87,30.05,10.0,West,8.1,-,N/A,,Clear,260,2013-01-04 12:54:00
7:54 AM,10.9,8.1,88,30.04,10.0,West,9.2,-,N/A,,Clear,260,2013-01-04 13:54:00
8:54 AM,12.0,8.1,84,30.06,9.0,West,6.9,-,N/A,,Clear,270,2013-01-04 14:54:00
9:54 AM,16.0,10.9,81,30.09,10.0,West,9.2,-,N/A,,Clear,270,2013-01-04 15:54:00
10:54 AM,19.0,12.9,77,30.09,10.0,West,9.2,-,N/A,,Clear,270,2013-01-04 16:54:00
11:54 AM,21.9,14.0,72,30.09,10.0,West,9.2,-,N/A,,Clear,260,2013-01-04 17:54:00
12:54 PM,25.0,15.1,66,30.07,10.0,West,9.2,-,N/A,,Clear,270,2013-01-04 18:54:00
1:54 PM,27.0,16.0,63,30.08,10.0,West,8.1,-,N/A,,Clear,270,2013-01-04 19:54:00
2:54 PM,28.0,16.0,61,30.09,10.0,West,10.4,-,N/A,,Clear,260,2013-01-04 20:54:00
3:54 PM,27.0,16.0,63,30.10,10.0,West,10.4,-,N/A,,Clear,260,2013-01-04 21:54:00
4:54 PM,25.0,15.1,66,30.12,10.0,West,8.1,-,N/A,,Clear,260,2013-01-04 22:54:00
5:54 PM,23.0,14.0,68,30.15,10.0,West,6.9,-,N/A,,Clear,270,2013-01-04 23:54:00
6:54 PM,21.0,12.9,71,30.16,10.0,WSW,5.8,-,N/A,,Clear,250,2013-01-05 00:54:00
7:54 PM,19.9,12.9,74,30.17,10.0,West,5.8,-,N/A,,Clear,260,2013-01-05 01:54:00
8:54 PM,18.0,10.9,74,30.17,10.0,West,4.6,-,N/A,,Clear,270,2013-01-05 02:54:00
9:54 PM,17.1,12.0,81,30.17,10.0,Calm,Calm,-,N/A,,Clear,0,2013-01-05 03:54:00
10:54 PM,10.9,8.1,88,30.19,10.0,SW,3.5,-,N/A,,Clear,220,2013-01-05 04:54:00
11:54 PM,12.0,9.0,88,30.19,10.0,Calm,Calm,-,N/A,,Clear,0,2013-01-05 05:54:00